{"data":{"norad_id":41893,"intl_designator":"2016-079A","name":"ECHOSTAR 19","alt_names":[],"object_type":"PAYLOAD","status":"ACTIVE","operator":null,"country":"US","launch_date":"2016-12-18","launch_site_code":"AFETR","launch_vehicle":null,"mission":null,"orbit_class":"UNKNOWN","rcs_meters":7.191,"size_class":null,"mass_kg":null,"dimensions":null,"purposes":["comms"],"wikipedia_slug":null,"has_3d_model":false,"image_url":null,"decayed_at":null,"tle_current":{"epoch":"2026-09-19T14:54:16.682688Z","epoch_age_seconds":102034,"freshness":"FRESH","line1":"1 41893U 16079A   26262.62102642 -.00000143  00000+0  00000+0 0  9996","line2":"2 41893   0.0162 147.2882 0001424  19.8956 317.8186  1.00271377 35658","mean_motion":1.00271377,"eccentricity":0.0001424,"inclination_deg":0.0162,"raan_deg":147.2882,"arg_perigee_deg":19.8956,"mean_anomaly_deg":317.8186,"bstar":0,"rev_number":3565,"period_min":1436.1027474471,"perigee_km":35780.705064671,"apogee_km":35792.713612908,"semimajor_km":42164.846338789,"source":"CELESTRAK","updated_at":"2026-09-20T09:00:35.249907Z"}}}